Wetbulb
37.02 34.75 31.62 35.01 35.50 34.44 34.67 32.20 31.96 32.97 35.96 35.18 35.00 34.81 38.09 38.85 39.05 39.54 39.56 40.52 41.00 41.34 44.57 43.84 44.03 44.67 51.41 55.19 57.37 60.70 62.45 63.85 63.95 63.06 62.16 62.19 61.55 61.67 61.07 60.62 60.30 59.32 58.69 57.01
34.10 30.87 35.91 37.91 35.80 34.43 32.77 31.74 31.37 34.21 36.28 36.27 34.14 34.65 37.60 38.05 38.93 40.50 41.33 40.82 41.19 41.62 42.21 42.18 42.97 43.15 42.92 49.86 55.18 57.60 60.91 62.88 63.29 63.85 63.41 63.46 62.76 62.54 62.29 61.05 60.41 59.76 58.85 57.61
31.02 33.11 36.88 36.32 33.98 33.50 31.32 31.12 30.65 32.57 33.34 32.68 31.49 31.30 33.73 36.20 36.51 38.43 39.31 40.62 40.70 40.94 41.33 42.18 41.51 41.69 41.53 41.93 49.18 55.03 58.37 61.28 62.98 63.84 63.77 58.45 58.56 56.68 58.37 60.30 59.87 59.84 59.34 58.32
31.97 33.84 33.91 32.42 31.97 33.45 29.14 34.38 33.98 33.11 31.92 27.57 30.52 25.88 30.50 34.31 34.90 36.33 38.85 38.84 38.62 38.57 39.07 39.33 39.30 40.01 41.11 41.76 41.92 50.37 55.77 59.21 61.85 63.18 63.14 61.03 60.71 59.19 60.26 60.49 61.01 59.78 59.51 58.84
30.72 32.46 32.15 31.43 33.32 35.03 32.59 34.18 33.52 32.50 29.50 27.55 27.47 27.42 29.57 30.99 33.81 37.31 38.14 37.82 39.30 40.20 40.67 40.90 41.20 41.97 41.94 43.13 41.20 42.70 50.89 55.93 59.71 61.83 62.85 61.57 60.83 61.37 60.52 59.90 59.59 59.36 59.15 59.33
31.21 33.65 33.92 33.93 33.39 34.60 35.10 33.19 31.51 29.20 28.38 23.84 27.25 28.80 26.88 30.95 34.48 34.76 36.16 36.77 37.42 39.38 40.40 40.54 41.27 42.37 44.09 47.37 47.57 44.75 46.83 52.54 56.97 60.47 62.08 61.57 60.45 60.27 55.99 55.74 57.56 56.73 53.70 53.72
30.52 31.52 33.22 35.53 32.69 34.39 31.87 30.41 24.19 23.30 21.89 22.72 26.00 26.02 29.41 33.89 35.11 35.43 36.50 36.93 38.70 39.28 39.82 40.10 40.46 41.62 42.98 45.98 49.32 50.13 51.27 53.02 56.00 59.01 60.28 60.24 59.92 58.22 56.78 54.99 55.97 52.54 50.76 49.84
26.48 24.68 32.80 35.26 33.85 31.87 30.32 30.76 24.68 18.35 19.88 23.04 26.88 24.45 30.34 34.45 35.69 36.99 37.89 39.26 39.70 38.89 39.46 39.49 39.71 40.72 42.08 43.05 47.32 50.90 52.08 52.12 53.84 54.90 55.39 55.97 56.08 55.28 55.24 54.46 53.62 52.79 52.05 51.07
27.21 28.01 33.52 34.62 35.85 36.92 31.74 28.82 31.55 24.39 15.13 20.61 24.51 27.79 33.34 35.57 35.46 36.98 38.15 38.46 39.15 38.93 39.49 39.66 39.88 40.13 40.91 42.24 43.21 47.79 50.22 51.02 51.91 52.41 52.11 52.64 52.87 52.76 51.91 50.61 50.78 50.68 48.89 46.37
32.85 27.17 32.38 33.90 36.52 35.70 33.73 35.20 27.63 25.51 15.29 15.01 22.61 24.15 29.14 31.28 34.55 37.15 37.81 37.66 37.81 37.96 38.37 38.92 39.27 39.79 40.45 41.27 42.16 43.62 46.00 48.10 48.97 49.80 50.23 49.87 49.89 49.83 49.33 48.08 47.18 46.46 45.42 44.13
34.27 31.83 29.30 33.03 31.61 30.51 30.84 29.71 29.69 29.71 26.68 20.49 16.79 24.30 30.19 34.07 34.21 35.71 37.07 38.01 38.08 38.03 38.27 38.57 38.90 39.52 40.20 40.81 41.43 41.86 42.79 44.08 44.86 45.92 46.12 46.69 45.77 45.35 45.10 45.12 44.43 43.76 42.22 41.51
35.32 32.27 27.21 29.23 32.15 34.34 33.35 32.24 31.68 27.41 22.51 23.55 23.60 27.48 34.20 33.30 35.81 37.06 37.20 37.98 37.88 37.76 37.89 37.90 38.57 39.16 39.60 40.17 40.66 41.04 41.58 42.06 42.47 43.27 43.75 43.68 43.15 42.76 42.76 42.65 42.52 41.10 41.40 39.49
36.44 29.44 20.01 24.69 28.14 30.51 30.15 30.12 31.36 30.61 29.21 24.65 22.46 28.85 33.72 34.16 35.23 36.68 37.52 37.81 38.05 36.62 36.73 37.16 37.79 37.93 38.38 38.73 39.17 39.59 40.10 40.42 41.10 41.43 41.81 41.69 41.83 42.08 42.03 41.58 40.72 39.55 39.09 38.52
40.64 32.14 30.05 26.21 27.10 31.71 30.30 30.92 32.46 33.52 26.37 28.61 27.35 31.17 31.87 33.36 35.08 36.51 37.99 38.12 38.15 36.58 36.86 36.87 36.72 36.67 37.23 37.53 37.95 38.37 38.77 39.61 40.40 40.56 40.56 40.40 40.32 40.34 40.48 40.09 39.11 38.67 38.07 37.81
37.39 29.58 30.55 30.25 31.45 31.77 29.73 31.29 32.82 32.47 33.75 28.91 33.05 30.44 32.07 34.86 36.13 38.12 38.18 38.11 36.34 36.73 36.75 36.87 37.05 37.03 36.83 36.71 36.78 37.17 37.07 37.02 38.10 38.57 38.57 38.05 37.85 38.02 38.07 37.51 37.47 37.03 36.79 36.56
38.53 31.73 30.89 28.10 32.63 33.46 31.69 31.56 32.10 33.47 34.09 33.73 33.28 31.16 35.16 38.08 36.46 36.45 38.03 38.08 37.04 36.94 36.95 36.55 36.33 36.06 35.49 35.13 35.23 34.96 35.00 35.40 35.77 35.90 35.37 35.21 35.48 35.32 35.25 35.50 35.26 34.77 34.37 33.77
35.45 32.68 32.14 29.22 31.13 31.25 29.25 32.40 32.04 31.78 32.68 32.94 29.80 35.30 36.41 35.10 36.23 37.00 37.34 37.41 37.13 36.44 35.76 35.25 35.21 35.20 34.73 34.17 34.01 33.77 34.30 34.58 34.02 33.75 33.27 33.34 33.24 33.23 32.86 32.65 32.13 29.99 29.83 29.41
32.63 32.14 32.17 28.27 31.66 24.22 31.39 30.93 36.85 34.87 36.02 35.88 34.87 33.70 35.67 36.46 36.63 37.12 37.54 36.67 34.85 34.28 34.27 34.61 34.73 34.55 34.20 33.54 32.63 33.05 33.12 33.22 33.15 32.65 31.94 31.53 31.01 30.38 29.42 28.52 28.13 27.55 27.17 27.23
37.21 33.42 30.49 27.41 27.34 25.77 29.34 29.47 32.03 32.69 33.37 38.34 36.01 34.75 34.96 33.29 32.63 31.27 34.01 34.80 34.46 33.98 34.08 34.13 34.17 33.67 32.60 32.09 31.68 32.38 31.64 31.36 30.91 30.36 30.30 29.42 27.42 26.18 25.42 25.31 25.44 24.89 25.11 25.31
34.39 34.93 31.87 25.18 23.76 18.78 24.50 26.27 32.32 35.12 29.12 32.54 38.16 37.32 32.87 32.70 32.34 32.47 32.78 32.79 32.48 32.86 33.03 32.56 32.62 31.80 31.33 30.76 30.66 30.64 29.67 29.55 28.88 29.05 28.87 26.53 24.73 20.96 21.95 23.64 23.13 23.84 22.93 24.82
30.93 31.64 30.03 27.20 20.81 21.92 27.77 29.99 32.97 24.80 27.47 30.19 34.73 36.03 32.69 33.50 34.62 32.91 32.17 31.49 31.55 31.61 31.61 30.77 30.55 29.90 29.22 29.26 29.18 28.55 28.15 27.42 27.96 27.33 24.94 23.94 23.37 21.90 22.04 21.37 21.18 20.07 20.52 21.93
29.14 28.85 28.71 27.78 24.76 23.45 29.06 30.89 29.36 31.39 30.20 31.04 30.93 33.01 31.74 29.52 29.89 30.43 29.84 29.69 30.26 30.76 30.78 30.19 28.93 27.37 26.54 26.81 26.42 26.33 25.41 25.86 25.18 23.65 22.65 20.61 18.54 20.98 21.62 15.23 19.04 17.55 17.71 18.50
24.83 28.78 27.25 29.27 28.55 29.06 28.72 29.24 31.38 31.35 31.61 30.71 31.07 30.79 29.82 28.39 27.43 27.77 27.83 28.41 29.24 29.33 28.24 27.43 26.48 24.73 22.70 23.16 22.85 22.17 21.95 21.94 20.61 17.21 16.32 16.73 18.31 20.67 19.25 17.05 20.24 20.85 17.87 19.55
21.40 24.12 24.64 26.36 27.94 27.61 29.04 29.70 29.79 30.74 31.47 31.08 29.97 29.01 29.02 27.17 26.99 26.79 27.52 28.89 27.62 26.57 24.59 23.20 23.06 21.52 19.34 18.47 18.90 17.56 17.03 15.89 11.62 11.94 15.00 17.35 17.13 18.26 17.80 19.97 20.17 19.65 20.11 19.96
24.34 25.70 20.73 22.17 24.85 26.56 28.78 29.42 31.23 30.62 29.53 27.56 27.11 26.45 27.27 28.10 26.06 27.19 27.49 27.20 25.44 22.50 20.38 18.79 18.35 17.07 15.34 14.64 14.07 11.13 10.04 8.49 11.22 13.17 16.14 17.41 16.80 14.79 17.72 18.86 20.21 20.32 20.89 21.54
24.66 24.35 24.82 24.26 29.16 30.70 31.37 31.52 30.08 29.40 27.41 27.07 26.63 25.73 26.39 27.22 27.00 25.44 24.76 22.89 19.89 17.64 15.68 14.78 12.67 11.38 10.37 9.81 9.39 5.90 2.60 3.44 5.06 11.23 12.72 12.81 14.62 16.58 18.15 18.28 21.90 26.33 29.23 30.33
MSLP
1016.68 1017.20 1017.57 1018.00 1018.43 1018.35 1018.72 1019.09 1019.01 1018.83 1018.86 1019.45 1019.44 1019.28 1018.12 1018.37 1018.37 1018.04 1018.12 1018.04 1017.80 1017.47 1016.40 1016.72 1016.97 1016.87 1017.24 1017.69 1017.95 1018.21 1018.55 1018.69 1019.36 1019.89 1020.44 1020.90 1021.32 1021.99 1022.37 1022.88 1023.41 1023.81 1024.30 1024.88
1017.59 1017.81 1017.86 1017.80 1018.31 1018.77 1018.84 1019.16 1019.29 1019.06 1019.46 1019.84 1019.61 1019.27 1018.47 1017.88 1017.59 1017.09 1016.98 1017.10 1017.01 1016.72 1016.35 1016.48 1016.76 1016.77 1016.84 1016.75 1016.92 1017.39 1017.52 1017.88 1018.32 1018.81 1019.23 1019.83 1020.45 1021.23 1021.57 1022.34 1022.84 1023.23 1023.74 1024.31
1017.64 1017.56 1017.75 1017.82 1018.63 1019.08 1019.05 1019.24 1019.39 1019.53 1020.19 1020.30 1020.23 1019.56 1018.48 1017.13 1016.96 1016.59 1016.02 1016.09 1016.39 1016.70 1016.68 1016.29 1016.45 1016.46 1016.40 1016.58 1016.65 1016.66 1016.79 1017.09 1017.35 1017.96 1018.72 1019.45 1020.17 1020.95 1021.28 1021.48 1022.07 1022.35 1022.87 1023.29
1017.86 1017.73 1018.12 1018.19 1018.60 1018.87 1019.34 1019.09 1019.36 1020.01 1020.75 1021.19 1021.09 1020.48 1018.67 1017.63 1017.12 1016.33 1015.26 1015.85 1016.13 1016.40 1016.48 1016.47 1016.31 1016.14 1016.12 1016.01 1016.32 1016.30 1016.30 1016.66 1016.96 1017.53 1017.99 1018.57 1019.13 1019.86 1020.10 1020.61 1021.11 1021.55 1022.06 1022.48
1017.50 1017.64 1018.10 1018.22 1018.02 1018.47 1019.12 1019.43 1020.19 1020.68 1021.35 1021.60 1021.65 1021.48 1018.45 1017.89 1017.09 1015.61 1015.01 1015.68 1016.02 1016.35 1016.58 1016.67 1016.49 1016.28 1015.99 1015.87 1015.93 1016.08 1016.02 1016.41 1016.66 1017.04 1017.44 1017.94 1018.50 1018.87 1019.56 1020.21 1020.75 1020.99 1021.41 1021.79
1017.50 1017.51 1017.36 1017.25 1018.18 1018.56 1019.31 1020.09 1021.13 1021.81 1022.27 1022.46 1021.51 1021.32 1018.10 1017.47 1016.04 1015.40 1015.14 1015.55 1016.01 1016.45 1016.72 1016.83 1016.66 1016.52 1016.29 1016.00 1015.90 1015.91 1015.85 1016.18 1016.50 1016.77 1017.21 1017.55 1017.98 1018.64 1019.39 1020.02 1020.45 1020.81 1021.20 1021.58
1017.66 1017.56 1017.29 1017.15 1018.42 1019.24 1019.29 1020.28 1022.11 1023.06 1023.22 1022.75 1021.93 1021.47 1017.11 1016.21 1015.34 1015.35 1015.40 1015.68 1016.01 1016.41 1016.83 1017.00 1017.00 1016.80 1016.70 1016.59 1016.30 1016.04 1015.98 1016.24 1016.48 1016.76 1017.05 1017.28 1017.69 1018.41 1019.19 1019.89 1020.32 1020.87 1021.28 1021.51
1017.00 1017.62 1016.93 1016.67 1017.05 1017.98 1019.28 1019.36 1020.42 1022.00 1023.24 1022.81 1022.32 1020.20 1016.45 1015.36 1015.36 1015.30 1015.57 1015.77 1016.07 1016.49 1016.89 1017.06 1017.24 1017.20 1017.28 1017.32 1017.08 1016.66 1016.49 1016.57 1016.68 1016.90 1017.27 1017.56 1017.90 1018.37 1019.08 1019.63 1020.06 1020.59 1020.92 1021.29
1015.83 1016.25 1016.22 1016.32 1016.61 1017.00 1018.65 1018.89 1018.89 1021.15 1023.56 1022.94 1021.04 1018.73 1016.52 1014.91 1015.12 1015.40 1015.71 1015.85 1016.27 1016.49 1016.84 1017.18 1017.45 1017.54 1017.73 1017.72 1017.63 1017.18 1017.06 1017.16 1017.28 1017.44 1017.64 1017.90 1018.39 1018.92 1019.37 1019.74 1020.09 1020.65 1021.08 1021.33
1014.35 1015.77 1016.43 1016.55 1016.52 1016.79 1016.62 1017.38 1019.12 1020.53 1022.18 1022.50 1020.24 1018.81 1016.28 1015.46 1015.44 1015.65 1015.85 1016.07 1016.54 1016.76 1017.02 1017.31 1017.64 1017.76 1017.93 1018.12 1017.97 1017.73 1017.60 1017.69 1017.90 1017.95 1018.19 1018.40 1018.66 1019.14 1019.53 1019.95 1020.37 1020.80 1021.20 1021.57
1013.81 1014.55 1017.05 1016.88 1016.41 1016.06 1017.02 1017.15 1017.94 1018.81 1019.79 1020.08 1019.78 1017.33 1015.11 1014.59 1014.84 1015.43 1016.01 1016.35 1016.56 1017.05 1017.38 1017.74 1017.82 1017.99 1018.04 1018.17 1018.25 1018.24 1018.23 1018.35 1018.46 1018.52 1018.64 1018.82 1019.06 1019.50 1019.79 1020.04 1020.60 1020.85 1021.17 1021.68
1013.22 1014.48 1016.42 1016.57 1016.48 1016.34 1016.10 1015.88 1016.33 1017.62 1018.76 1019.13 1018.81 1015.83 1014.83 1014.94 1015.24 1015.66 1016.19 1016.49 1016.71 1017.04 1017.45 1017.68 1017.91 1018.11 1018.23 1018.29 1018.54 1018.68 1018.72 1018.80 1018.99 1019.04 1019.16 1019.33 1019.38 1019.64 1019.94 1020.23 1020.65 1020.89 1021.07 1021.49
1012.68 1014.16 1016.13 1016.99 1017.13 1016.84 1016.43 1016.35 1016.23 1016.66 1017.40 1017.70 1018.07 1015.15 1015.00 1015.35 1015.75 1015.96 1016.28 1016.54 1016.68 1016.95 1017.44 1017.85 1018.26 1018.48 1018.57 1018.67 1018.73 1018.83 1018.98 1019.09 1019.37 1019.62 1019.61 1020.02 1019.85 1019.94 1020.17 1020.36 1020.66 1020.86 1021.09 1021.42
1012.16 1013.41 1013.97 1014.20 1014.79 1015.58 1016.57 1016.00 1015.74 1015.96 1016.90 1016.00 1015.71 1014.42 1015.39 1015.70 1015.78 1016.06 1016.26 1016.58 1016.94 1017.35 1017.84 1018.19 1018.53 1018.83 1018.93 1019.03 1019.05 1019.17 1019.35 1019.41 1019.46 1019.69 1019.89 1019.87 1019.96 1020.16 1020.48 1020.68 1020.90 1021.15 1021.32 1021.45
1012.30 1013.35 1014.10 1014.55 1014.64 1015.05 1015.11 1015.12 1015.34 1015.46 1014.45 1015.12 1011.89 1014.14 1014.44 1015.06 1015.49 1015.59 1015.93 1016.53 1017.08 1017.60 1018.01 1018.32 1018.75 1019.07 1019.35 1019.43 1019.37 1019.58 1019.85 1019.97 1020.15 1020.00 1019.76 1020.06 1020.19 1020.32 1020.51 1020.63 1020.82 1021.19 1021.39 1021.68
1013.09 1013.92 1014.22 1014.89 1014.88 1015.24 1015.47 1015.08 1014.57 1014.19 1013.92 1013.45 1013.25 1012.56 1013.25 1014.02 1014.98 1015.67 1016.00 1016.49 1017.18 1017.91 1018.49 1018.69 1018.92 1019.31 1019.63 1020.05 1019.67 1019.79 1020.21 1020.55 1020.40 1020.43 1020.72 1020.24 1020.18 1020.49 1020.78 1021.09 1020.96 1021.25 1021.59 1021.63
1013.56 1014.13 1014.82 1014.88 1015.00 1015.68 1015.56 1012.94 1014.16 1013.89 1013.46 1013.19 1013.13 1011.00 1013.20 1014.18 1014.63 1015.04 1015.87 1016.56 1017.23 1017.84 1018.44 1018.79 1018.95 1019.29 1019.57 1019.67 1019.91 1020.12 1020.30 1020.45 1020.39 1020.85 1020.93 1020.49 1020.67 1020.99 1021.13 1020.89 1021.05 1021.36 1021.64 1021.43
1013.42 1014.01 1014.39 1014.83 1015.03 1014.78 1012.60 1012.44 1012.45 1012.77 1012.38 1012.60 1012.13 1012.34 1012.79 1013.35 1013.87 1014.34 1015.04 1016.01 1016.99 1017.61 1018.04 1018.46 1018.68 1019.00 1019.38 1019.71 1020.05 1020.16 1020.28 1020.52 1020.83 1020.97 1020.98 1020.95 1020.83 1021.27 1021.45 1021.35 1021.33 1021.36 1021.48 1021.64
1013.22 1013.69 1013.93 1014.20 1014.38 1013.97 1012.56 1013.01 1012.90 1012.88 1011.60 1011.36 1011.97 1012.70 1013.23 1013.96 1014.59 1015.09 1015.33 1015.75 1016.57 1017.42 1018.22 1018.78 1019.14 1019.48 1019.90 1020.10 1020.21 1020.18 1020.35 1020.64 1020.71 1021.08 1021.32 1021.58 1021.78 1021.94 1021.89 1021.93 1021.85 1021.74 1021.83 1021.84
1013.53 1013.40 1013.73 1014.32 1014.43 1013.98 1013.04 1012.37 1012.29 1012.49 1011.78 1011.09 1011.03 1011.91 1013.38 1014.49 1015.07 1014.92 1015.62 1016.32 1017.21 1017.90 1018.63 1019.23 1019.68 1019.98 1020.25 1020.67 1020.69 1020.67 1020.94 1021.07 1021.52 1021.85 1022.10 1022.24 1022.33 1022.48 1022.55 1022.37 1022.29 1022.14 1022.06 1021.84
1013.87 1013.83 1013.49 1014.03 1014.26 1013.49 1012.28 1012.52 1012.83 1013.40 1012.84 1011.98 1011.84 1012.36 1013.74 1014.44 1014.59 1014.68 1015.77 1016.99 1017.68 1018.35 1019.05 1019.64 1020.01 1020.48 1020.97 1021.16 1021.18 1021.44 1021.74 1022.18 1022.40 1022.36 1022.30 1022.31 1022.39 1022.51 1022.43 1022.38 1022.29 1022.31 1022.23 1022.00
1013.58 1013.79 1013.71 1013.93 1013.93 1013.16 1012.01 1013.03 1012.87 1012.14 1012.45 1012.47 1012.59 1012.89 1013.99 1014.64 1015.27 1015.77 1016.55 1017.54 1018.25 1018.80 1019.41 1019.92 1020.54 1021.31 1021.72 1021.75 1021.78 1022.22 1022.61 1022.92 1022.89 1022.92 1022.87 1022.91 1022.73 1022.63 1022.52 1022.51 1022.31 1022.21 1022.20 1021.98
1013.83 1012.75 1012.98 1012.86 1011.69 1011.20 1011.57 1011.71 1011.71 1011.96 1012.29 1012.71 1013.01 1013.48 1013.91 1015.05 1015.92 1016.52 1017.39 1018.21 1018.99 1019.63 1020.22 1020.75 1021.25 1022.16 1022.75 1022.94 1023.01 1023.29 1023.73 1023.71 1023.70 1023.66 1023.52 1023.24 1022.89 1022.65 1022.45 1022.49 1022.40 1022.19 1022.01 1021.76
1013.64 1013.00 1012.90 1012.81 1011.64 1011.69 1011.68 1011.96 1012.10 1012.30 1012.51 1012.82 1013.00 1013.46 1014.16 1015.13 1016.20 1016.96 1017.74 1018.63 1019.52 1020.42 1021.17 1021.89 1022.37 1022.98 1023.60 1023.92 1024.03 1024.30 1024.50 1024.50 1024.44 1024.25 1023.81 1023.36 1023.13 1022.80 1022.50 1022.34 1022.12 1021.83 1021.49 1021.28
1013.37 1013.23 1013.12 1012.59 1012.27 1012.38 1012.09 1012.04 1012.02 1012.50 1012.92 1013.33 1013.68 1014.05 1014.63 1015.36 1016.60 1017.42 1018.44 1019.29 1020.25 1021.33 1022.17 1022.77 1023.18 1023.84 1024.39 1024.72 1024.95 1025.34 1025.48 1025.43 1025.15 1024.72 1024.17 1023.70 1023.39 1023.15 1022.55 1022.08 1021.57 1021.18 1020.70 1020.60
1013.36 1012.94 1012.61 1011.65 1011.35 1011.18 1011.14 1011.14 1011.78 1012.63 1013.05 1013.45 1013.75 1014.91 1015.68 1016.18 1017.13 1018.20 1019.40 1020.23 1021.15 1022.11 1023.01 1023.61 1024.13 1024.44 1024.92 1025.24 1025.55 1026.03 1026.12 1025.96 1025.62 1025.09 1024.66 1024.33 1023.83 1023.23 1022.66 1021.99 1020.95 1020.50 1019.96 1019.63
Wind_Speed
2 5 7 7 5 3 6 3 5 2 2 2 5 7 14 6 5 10 9 9 10 11 10 7 8 8 10 10 13 15 15 17 13 11 10 9 10 9 8 8 11 11 11 12
6 5 8 7 8 6 4 4 2 1 2 3 4 10 13 8 8 9 9 9 11 6 7 5 6 7 9 13 15 15 17 17 17 13 11 9 9 8 8 7 10 11 12 12
8 3 9 8 6 8 4 7 4 4 1 2 4 8 7 5 4 5 8 10 6 7 11 10 8 7 7 9 12 15 17 16 17 17 10 2 4 3 4 8 9 12 14 15
4 3 7 5 5 6 5 7 5 5 3 4 2 8 6 6 9 7 11 6 7 7 6 7 7 6 5 8 8 11 13 14 14 15 14 14 11 9 8 8 8 9 13 14
7 9 8 5 7 8 6 7 7 3 4 2 3 1 8 2 6 11 4 4 1 5 5 6 5 6 5 4 5 7 8 9 11 13 15 14 13 9 5 5 9 8 9 12
3 1 5 7 4 4 11 8 7 5 3 3 7 7 5 6 8 3 3 0 4 5 4 4 4 4 4 4 3 3 6 6 8 12 14 16 15 10 5 5 7 5 3 4
1 2 3 5 9 5 3 7 3 2 1 7 3 3 8 7 9 5 5 6 5 4 2 4 6 6 6 7 5 4 5 5 6 9 12 15 13 7 8 6 5 5 4 3
9 5 9 5 8 11 7 8 8 9 5 3 2 10 9 7 4 4 3 4 5 2 1 4 4 5 5 6 5 5 5 4 4 5 4 4 5 4 4 4 3 3 3 3
7 5 0 2 5 11 6 7 4 9 3 4 6 8 10 8 7 3 4 2 5 2 2 4 4 5 5 5 5 4 4 4 3 4 4 4 4 4 4 5 4 3 3 3
8 4 1 3 4 1 8 10 5 2 5 4 6 6 10 1 6 6 5 2 2 1 2 2 3 4 3 2 3 5 5 5 3 4 3 3 4 4 5 4 4 3 3 3
6 5 1 4 8 11 4 4 3 6 6 7 2 9 8 10 7 8 5 5 5 4 4 2 2 2 3 4 5 5 5 6 5 4 4 5 5 5 4 4 3 3 3 3
7 6 5 9 2 2 3 8 8 7 7 2 3 11 3 5 6 8 7 6 4 4 3 3 4 3 4 5 5 5 5 5 4 3 4 4 5 5 5 4 3 3 3 3
10 3 4 6 4 2 4 3 4 5 3 8 7 14 1 4 6 6 7 5 2 3 4 4 4 4 4 4 5 5 5 5 4 3 4 3 4 3 2 1 2 3 3 3
10 4 13 16 5 9 7 7 7 9 4 11 13 13 1 5 7 6 6 5 3 3 4 4 5 4 4 4 5 5 5 4 3 3 3 4 4 3 1 1 1 2 3 4
7 9 6 3 6 4 6 10 15 16 22 12 28 17 10 12 13 14 8 6 6 5 4 4 4 5 4 5 5 6 5 5 4 3 5 4 4 3 2 1 1 2 3 4
2 2 3 3 6 5 2 6 14 23 21 21 12 20 8 10 3 5 8 7 5 5 5 5 6 6 5 3 5 5 5 4 4 5 4 4 5 5 5 3 3 1 3 3
7 6 4 8 8 5 7 25 12 6 6 10 17 18 6 5 10 11 10 7 8 8 7 6 7 6 5 5 4 5 3 2 5 5 4 6 5 4 4 4 3 1 2 1
7 7 5 3 8 10 8 3 18 21 15 14 11 4 7 7 3 4 6 10 10 9 8 7 6 6 5 4 4 3 4 5 4 4 5 5 7 6 5 5 5 4 2 2
6 4 4 4 3 5 4 5 8 11 20 22 17 8 6 5 4 1 6 6 8 7 5 4 3 3 4 5 3 5 6 5 6 7 7 7 5 5 5 5 4 2 2 2
3 4 3 2 4 8 7 3 1 6 12 7 19 18 11 8 7 5 7 7 8 8 6 6 5 4 6 4 4 6 6 6 7 6 6 5 4 3 3 3 4 2 2 3
6 3 9 6 3 9 6 4 3 7 8 2 3 7 9 9 3 6 10 6 6 6 7 6 6 6 5 5 5 7 6 7 5 5 5 5 4 4 3 4 2 2 3 3
10 10 8 3 3 11 8 5 10 5 3 2 2 6 7 7 7 9 8 8 8 9 7 6 7 6 6 6 6 6 6 5 5 6 5 5 4 4 3 2 3 3 2 3
3 7 7 9 8 3 7 2 3 4 4 5 5 5 10 12 7 8 9 8 7 8 6 5 6 7 6 6 6 5 5 6 6 5 4 3 5 4 3 3 4 3 2 3
4 2 4 4 4 4 3 2 2 5 5 5 5 9 12 12 10 8 8 8 7 6 6 3 6 6 5 5 6 5 6 7 5 4 4 4 5 6 4 3 3 3 4 4
3 6 5 5 1 2 5 7 6 5 4 5 6 5 9 15 8 8 7 8 7 6 4 3 5 5 4 4 5 5 6 5 4 4 4 4 3 4 6 4 5 4 5 5
5 7 6 6 8 5 5 7 8 9 9 9 9 8 5 6 9 7 7 6 6 6 4 4 4 5 4 4 4 5 5 5 5 6 5 5 6 6 5 6 7 8 14 15
Wind_Direction
354 105 173 176 187 120 136 137 168 216 25 193 236 262 275 266 264 273 253 256 249 246 258 238 229 220 211 203 204 205 195 200 194 195 191 191 192 190 183 189 195 188 187 183
50 203 201 144 142 128 134 135 218 59 45 195 340 285 272 254 238 223 248 246 243 257 269 250 244 234 213 216 212 207 206 198 200 200 199 204 189 202 192 188 196 192 188 188
156 215 153 136 148 141 151 157 174 183 181 69 339 288 281 305 264 267 247 250 261 258 280 279 258 247 234 221 212 211 210 202 198 202 195 109 111 85 165 190 193 199 194 194
203 94 137 120 162 127 182 199 152 140 106 233 1 280 303 279 293 276 272 272 271 276 280 293 292 285 254 244 217 215 209 206 200 192 197 192 200 196 204 195 195 195 198 199
229 158 149 158 192 159 210 124 141 118 110 55 329 347 263 288 279 264 274 294 55 331 317 316 322 311 304 308 240 219 196 196 193 190 200 202 210 215 174 174 191 188 199 209
170 209 153 172 74 134 151 84 53 57 96 286 204 174 253 199 212 258 154 92 329 331 338 349 350 6 3 5 22 199 189 198 185 190 200 210 211 207 154 169 188 189 177 183
102 203 174 130 86 33 73 106 41 7 2 229 332 170 243 250 231 226 250 299 307 316 351 13 20 23 17 15 33 68 139 150 162 183 204 218 216 188 179 169 184 166 167 188
158 232 168 181 166 165 194 160 160 189 193 229 59 234 256 243 269 256 269 285 300 288 135 61 35 36 29 19 24 71 111 122 162 168 171 134 144 148 157 168 157 174 182 176
152 242 89 139 153 145 203 214 156 103 20 61 219 284 288 259 266 251 233 226 290 294 121 78 59 52 36 31 26 73 108 112 134 142 121 120 120 131 140 133 134 150 138 140
201 122 358 169 113 33 165 155 87 2 137 230 262 268 231 160 201 204 204 176 225 291 49 57 45 45 56 54 39 52 81 94 87 101 113 132 134 128 122 126 142 151 145 153
146 110 351 125 216 166 150 178 92 127 158 173 232 255 215 207 194 188 184 164 159 168 171 179 99 80 87 82 69 75 75 92 94 104 112 117 116 116 119 131 151 160 151 183
179 124 152 201 291 345 354 185 158 166 216 237 149 258 173 201 186 160 170 172 145 137 130 77 63 64 54 66 69 78 81 92 92 109 111 120 124 129 136 145 171 169 171 174
174 204 81 356 342 357 208 199 136 102 80 196 145 261 339 116 148 187 173 182 176 127 93 85 84 79 84 75 72 74 71 76 75 79 92 87 87 90 89 149 188 187 178 193
145 133 203 209 183 138 189 193 188 191 164 221 227 239 211 209 204 221 217 218 196 147 129 122 99 87 79 74 75 68 60 54 74 88 102 84 71 60 31 294 276 261 233 217
142 202 192 167 133 128 187 184 196 203 220 188 243 232 196 202 200 211 198 191 160 154 115 112 95 75 71 70 66 55 47 32 3 86 84 59 33 42 50 44 359 274 235 251
60 174 119 276 153 146 184 224 209 215 226 239 262 259 165 207 104 146 201 180 173 146 135 119 99 96 81 56 68 63 41 21 28 52 40 57 62 37 29 5 21 325 266 239
141 134 139 231 164 106 262 222 200 198 200 207 228 243 162 179 193 196 200 177 171 165 156 143 137 139 132 108 91 77 60 55 68 61 45 55 54 55 25 16 20 344 273 212
151 151 156 160 137 208 257 36 222 218 228 218 253 167 183 195 180 188 154 159 166 167 164 161 154 139 128 115 95 110 72 63 68 59 45 34 30 20 6 8 10 351 351 314
146 146 142 168 196 300 249 204 161 175 243 232 235 201 182 129 96 245 186 155 153 154 149 140 118 97 103 87 75 85 67 59 47 31 21 10 10 355 357 357 341 312 301 291
118 110 134 111 168 211 232 275 152 109 269 236 210 207 165 149 208 208 158 128 118 114 127 131 121 97 84 46 42 60 48 50 40 20 359 346 344 328 318 311 307 281 269 267
187 175 204 177 215 284 222 174 185 136 245 296 215 155 150 197 227 139 125 109 120 119 113 98 81 81 60 37 47 60 57 46 2 356 346 353 350 332 322 322 328 307 301 305
173 182 198 153 182 251 163 94 166 198 182 220 139 149 140 124 120 119 113 121 123 117 97 89 91 74 47 41 58 69 56 358 1 352 351 340 328 318 320 305 302 294 296 293
208 183 179 190 209 200 200 151 138 169 173 199 165 152 132 131 131 132 133 128 120 111 98 80 107 99 50 37 41 61 11 1 351 350 335 320 331 332 332 310 298 300 276 277
266 181 160 92 226 227 230 217 230 191 212 182 166 146 148 141 149 139 134 132 123 116 104 92 101 90 69 28 44 44 12 354 342 326 329 333 345 334 323 301 270 271 272 272
192 129 166 274 206 321 261 230 210 192 170 131 111 134 145 144 140 137 134 130 126 118 105 90 103 108 85 33 43 30 13 348 338 318 328 333 310 318 317 291 274 254 246 231
185 177 177 217 196 187 219 210 168 170 174 165 142 128 116 128 138 128 128 123 125 129 131 104 76 65 44 40 39 31 11 7 1 348 353 342 329 326 317 317 313 281 274 277